Regional Weather Roundup
Issued by NWS

Home | Current Version | Previous Version | Graphics & Text | Print | Product List | Glossary On
Versions: 1 2 3 4 5 6 7 8 9 10 11 12 13 14 15 16 17 18 19 20 21 22 23 24 25 26 27 28 29 30 31 32 33 34 35 36 37 38 39 40 41 42 43 44 45 46 47 48 49 50
000
ASUS43 KDMX 280707
RWRIA

WEATHER ROUNDUP FOR IOWA
NATIONAL WEATHER SERVICE DES MOINES IA
200 AM CDT SAT MAR 28 2015

NOTE: "FAIR" INDICATES FEW OR NO CLOUDS BELOW 12,000 FEET WITH NO
SIGNIFICANT WEATHER AND/OR OBSTRUCTIONS TO VISIBILITY.

* - THESE STATIONS ARE NOT NWS STATIONS...THUS NOT UNDER NWS
QUALITY CONTROL.  THEY ALSO DO NOT REPORT WEATHER SUCH
AS PRECIPITATION OR FOG.

IAZ001>003-012>014-020>022-031>034-043>046-280800-
   NORTHWEST IOWA

CITY           SKY/WX    TMP DP  RH WIND       PRES   REMARKS
CARROLL *      CLOUDY    32  27  80 CALM      30.13R
CHEROKEE *     MIX PCPN  30  28  93 E6        30.12F WCI  24
DENISON *      CLOUDY    30  30 100 SE6       30.10S FOG     WCI  24
LE MARS *      CLOUDY    32  25  74 SE5G12    30.11S WCI  27
ORANGE CITY *  CLOUDY    30  25  80 SE8       30.10R WCI  23
SHELDON *      CLOUDY    28  28 100 SE8       30.10R WCI  20
SIOUX CITY     CLOUDY    34  23  64 E9        30.10S WCI  27
SPENCER        CLOUDY    29  25  85 E3        30.13S
STORM LAKE *   CLOUDY    28  27  93 SE5       30.12S WCI  23
$$

IAZ055>058-069>071-079>083-090>094-280800-
   SOUTHWEST IOWA

CITY           SKY/WX    TMP DP  RH WIND       PRES   REMARKS
ATLANTIC *     CLOUDY    32  28  86 CALM      30.12S
AUDUBON *      FLURRIES  30  27  86 CALM      30.13R
CLARINDA *     CLOUDY    34  28  80 SE5       30.13F WCI  30
COUNCIL BLFS * CLOUDY    34  27  75 SE10      30.09S WCI  26
CRESTON *      CLOUDY    34  25  69 CALM      30.12S
HARLAN  *      CLOUDY    32  32 100 SE5       30.14S WCI  27
LAMONI         CLOUDY    35  21  56 E5        30.12S WCI  31
RED OAK *      CLOUDY    32  28  86 SE7       30.11F WCI  26
SHENANDOAH *   CLOUDY    34  28  80 SE9       30.11F WCI  26
$$

IAZ047>049-059>061-072>074-084-280800-
   CENTRAL IOWA

CITY           SKY/WX    TMP DP  RH WIND       PRES   REMARKS
AMES           CLOUDY    30  16  56 E3        30.15S
ANKENY *       CLOUDY    32  16  51 SE5       30.15S WCI  27
CHARITON *     CLOUDY    32  18  55 SE5       30.14S WCI  27
DES MOINES     CLOUDY    34  11  38 SE8       30.15S WCI  27
GRINNELL*      MOCLDY    23  16  74 E6        30.16F WCI  16
KNOXVILLE *    CLOUDY    30  12  47 SE7       30.14S WCI  23
MARSHALLTOWN   MOCLDY    24  17  74 E8        30.15F WCI  15
PELLA *        PTCLDY    28  18  64 SE6       30.17S WCI  22
PERRY *        CLOUDY    32  21  64 SE3       30.14S
$$

IAZ004>006-015-016-023>025-035-036-280800-
   NORTH CENTRAL IOWA

CITY           SKY/WX    TMP DP  RH WIND       PRES   REMARKS
ALGONA *       CLOUDY    30  21  69 SE9       30.15R WCI  22
CLARION *      CLOUDY    28  21  74 SE10      30.15S WCI  19
ESTHERVILLE    CLOUDY    29  25  85 CALM      30.13R
FORT DODGE *   CLOUDY    30  18  59 E8        30.15R WCI  23
MASON CITY     CLOUDY    25  16  68 SE7       30.17S WCI  17
FOREST CITY *  PTCLDY    27  18  69 E5        30.16S WCI  21
IOWA FALLS *     N/A     27  19  74 E6        30.16S WCI  20
$$

IAZ007>011-017>019-026>030-037>042-050>054-066-280800-
   NORTHEAST IOWA

CITY           SKY/WX    TMP DP  RH WIND       PRES   REMARKS
CEDAR RAPIDS   PTCLDY    21  14  74 E5        30.18S WCI  15
CHARLES CITY * CLOUDY    23  16  74 E5        30.18S WCI  17
CLINTON *      CLEAR     18  12  79 NE3       30.24S
DECORAH *      MOCLDY    19  10  68 CALM      30.18R
DUBUQUE        CLEAR     21  10  62 CALM      30.19R
MONTICELLO *   CLEAR     21  19  93 CALM      30.20S
OELWEIN *      MOCLDY    23  18  80 SE5       30.18S WCI  17
WATERLOO       MOCLDY    23  15  71 SE5       30.18S WCI  17
$$

IAZ064-065-067-068-078-280800-
   EAST CENTRAL IOWA

CITY           SKY/WX    TMP DP  RH WIND       PRES   REMARKS
DAVENPORT      CLEAR     23  13  65 SE3       30.21S
IOWA CITY      CLEAR     26  13  57 E7        30.21S WCI  18
MT. PLEASANT * PTCLDY    23  14  68 E7        30.19S WCI  15
MUSCATINE *    PTCLDY    23  16  74 CALM      30.22S
QUAD CITIES    PTCLDY    20  13  74 E3        30.21S
$$

IAZ062-063-075>077-085>089-095>099-280800-
   SOUTHEAST IOWA

CITY           SKY/WX    TMP DP  RH WIND       PRES   REMARKS
BURLINGTON     PTCLDY    27  14  58 SE6       30.19S WCI  20
FAIRFIELD *    MOCLDY    23  12  63 E5        30.18S WCI  17
FORT MADISON * CLEAR     25  16  68 E3        30.20S
KEOKUK *       CLEAR     28  14  54 E5        30.19S WCI  23
OSKALOOSA *    MOCLDY    27  14  59 SE7       30.17F WCI  19
CENTERVILLE *  CLOUDY    27  16  63 E6        30.16F WCI  20
OTTUMWA        PTCLDY    26  12  55 SE6       30.16F WCI  19
WASHINGTON *   CLEAR     21  16  79 E5        30.19S WCI  15
$$

ABBREVIATIONS USED IN REMARKS
   TC - TEMPERATURES IN CELSIUS
  WCI - WIND CHILL INDEX
   HX - HEAT INDEX
  VSB - VISIBILITY
$$



USA.gov is the U.S. government's official web portal to all federal, state and local government web resources and services.